Wind_Speed
31 30 31 30 30 29 29 29 29 29 29 28 26 26 27 28 31 33 35 36 37 37 36 35 34 35 35 36 36 37 38 38 39 40 41 41 42 42 42 42 42 42 42
31 30 30 30 30 30 30 30 30 31 31 30 29 30 31 32 34 36 37 37 37 36 35 34 34 34 35 37 38 39 41 42 42 43 44 44 45 46 46 47 47 47 47
31 30 30 30 31 31 31 30 31 32 32 31 31 32 33 35 37 38 38 38 37 37 36 36 36 37 38 40 41 43 44 45 47 48 48 49 49 50 50 51 52 52 52
31 30 30 31 31 31 31 31 32 33 33 32 32 33 35 38 39 39 39 39 39 38 38 39 40 41 43 44 46 47 49 50 52 53 54 55 55 56 56 57 57 57 58
33 32 32 32 32 32 32 32 33 33 33 33 33 35 37 39 40 40 40 40 40 41 42 43 44 46 47 49 51 52 54 55 57 58 59 60 60 60 61 61 62 62 62
34 34 34 34 33 33 33 33 33 33 34 35 36 38 40 41 42 42 42 42 42 44 45 47 49 51 52 54 55 57 58 60 61 62 62 63 63 64 64 65 66 66 66
36 36 36 35 34 34 35 34 34 34 36 38 40 42 43 43 44 44 44 44 45 47 49 51 53 55 57 58 59 60 61 62 63 64 65 65 66 67 68 69 69 70 70
37 38 37 36 36 37 37 36 37 38 39 41 43 46 47 46 46 47 47 47 48 51 53 56 58 60 61 62 63 63 64 65 66 67 68 69 70 71 72 73 73 74 75
38 38 38 38 39 39 39 39 40 42 43 44 46 47 48 48 47 48 50 51 53 56 58 61 63 65 66 67 67 68 69 70 71 72 73 74 75 76 77 78 79 80 81
37 38 39 40 42 42 42 42 44 45 46 47 48 49 49 50 50 48 49 53 56 58 61 64 66 68 70 71 72 73 73 73 74 74 75 77 79 80 82 84 86 87 89
38 39 40 42 43 44 44 45 46 47 49 50 50 50 50 52 53 53 53 55 58 60 62 65 68 70 72 73 74 73 73 74 75 77 79 81 83 85 88 90 92 94 96
40 40 41 43 44 45 46 47 48 49 50 51 51 51 52 53 54 57 59 60 61 63 65 67 69 71 73 73 73 73 74 76 78 80 82 85 88 92 95 98 101 103 106
41 42 43 44 46 47 47 48 48 50 51 51 51 52 53 55 58 61 64 65 66 67 69 70 71 71 71 72 74 76 77 80 83 86 90 95 99 103 106 109 112 114 117
41 42 43 45 46 47 47 48 49 51 51 51 52 54 56 59 62 64 66 68 70 71 73 74 74 75 77 78 79 81 84 88 92 97 102 106 110 112 113 112 111 111 111
41 42 43 44 45 46 47 48 49 51 51 52 54 57 60 62 64 66 69 72 74 74 73 74 76 78 80 83 86 91 95 100 105 109 111 111 109 103 96 89 85 84 84
41 42 42 43 44 45 47 48 50 51 52 54 57 60 62 64 66 69 72 73 74 75 76 75 78 81 86 90 96 102 106 110 112 110 105 96 86 76 69 65 62 62 62
40 41 42 43 44 46 48 49 50 51 54 57 60 62 64 67 70 71 72 74 75 77 77 77 82 87 93 99 105 109 110 107 100 89 79 70 62 58 54 51 49 49 50
40 41 42 43 45 47 48 49 51 54 57 60 62 65 67 69 70 72 73 75 76 79 81 83 88 95 101 107 108 105 97 86 74 65 60 55 52 48 45 43 44 45 46
40 41 42 44 46 47 48 51 54 57 60 62 64 66 68 69 71 73 74 76 79 83 88 93 97 102 105 105 98 87 73 63 57 53 51 49 46 43 42 43 44 44 44
41 41 43 45 46 48 51 54 57 60 62 64 66 68 69 71 72 74 76 80 85 90 96 102 105 105 100 90 78 65 54 50 47 46 46 44 42 42 43 44 45 46 45
40 41 44 45 47 51 54 57 59 61 63 65 67 69 70 71 73 77 81 87 92 98 104 107 104 96 82 69 58 49 44 41 40 43 42 41 41 42 44 45 46 47 47
40 42 44 47 50 53 56 58 61 63 65 67 68 69 71 73 77 82 88 94 100 104 105 100 90 76 62 52 45 41 39 36 35 38 39 38 40 41 43 43 43 43 43
40 43 46 49 53 55 57 60 62 64 66 68 69 70 73 77 83 88 94 100 103 101 94 83 69 57 49 44 39 37 35 34 34 37 37 35 38 39 40 38 37 36 36
42 45 49 51 54 56 59 61 63 65 66 68 70 73 78 83 90 95 99 101 96 86 74 63 55 47 43 40 38 36 34 32 33 36 37 35 35 36 35 32 30 29 29
44 47 50 52 54 57 60 62 63 64 66 69 73 78 84 90 95 100 99 93 80 67 57 51 46 43 41 40 38 37 36 35 32 33 36 35 34 31 31 27 25 25 26
46 48 50 53 55 58 60 61 63 64 67 72 78 84 90 95 99 97 89 76 61 52 47 44 43 42 40 40 40 40 39 38 35 32 32 32 30 26 23 25 23 24 26
Wind_Direction
261 261 260 260 261 265 269 275 279 285 287 285 283 283 285 289 293 296 297 298 298 297 296 293 290 286 284 282 281 280 279 278 277 275 274 273 272 270 268 266 264 263 261
264 261 259 259 261 264 268 273 277 283 285 284 282 282 284 288 292 294 297 297 297 296 295 293 291 288 286 284 283 282 281 280 279 277 276 275 274 272 271 269 268 265 264
265 260 258 259 262 264 267 271 276 281 284 284 282 282 284 288 291 294 296 296 295 294 292 290 289 287 286 284 283 282 281 280 279 277 276 275 273 272 271 270 269 267 266
263 258 257 260 262 264 267 272 277 281 283 282 281 283 286 289 291 293 295 294 293 291 289 288 286 285 284 283 282 280 279 278 277 276 275 274 273 273 272 271 270 268 267
260 257 257 260 263 265 269 274 279 282 282 281 283 286 288 290 292 293 293 292 292 290 288 287 285 284 283 282 281 280 280 280 279 278 277 276 275 274 273 272 271 270 269
259 257 257 259 263 267 271 276 281 283 283 284 285 288 291 292 292 292 292 291 290 288 287 286 285 284 284 283 283 283 283 283 282 281 280 278 277 276 275 274 273 272 270
259 256 257 260 264 269 273 278 282 284 285 287 289 291 292 293 292 292 291 289 289 289 289 288 287 287 286 286 286 286 285 285 284 283 281 280 279 277 277 275 274 272 271
258 257 259 262 267 271 275 279 282 284 287 289 291 293 294 292 292 292 291 290 291 291 291 291 291 291 290 290 289 289 287 286 285 284 283 281 280 279 277 276 275 273 271
259 259 261 265 269 273 276 280 283 285 287 289 291 292 292 291 292 291 292 292 293 293 294 294 294 295 294 293 292 291 290 288 287 286 284 282 281 279 278 277 275 273 272
261 261 264 267 271 275 278 282 284 286 287 289 290 291 290 291 290 288 287 289 290 292 293 294 295 295 295 294 293 292 291 290 288 287 285 283 281 280 278 277 275 274 272
263 264 267 270 273 276 279 282 284 286 288 289 291 290 290 291 291 290 289 289 290 291 291 292 293 293 293 293 292 292 291 289 288 286 284 282 281 279 278 276 275 274 272
265 267 270 272 275 278 280 282 284 286 288 290 290 290 291 292 292 292 292 292 292 292 293 293 293 294 294 293 293 291 290 288 286 285 283 282 280 279 278 276 275 273 272
266 268 271 274 276 279 281 283 285 286 288 290 290 291 292 293 293 294 294 295 295 295 295 295 295 294 294 293 292 290 289 288 287 286 285 283 282 281 279 277 275 273 271
267 270 273 275 278 281 283 284 286 287 289 290 291 292 293 294 295 296 296 296 296 296 297 298 298 297 296 295 294 293 292 291 291 290 288 287 286 284 282 280 278 275 273
269 272 275 278 280 282 284 285 286 288 291 292 293 294 295 297 297 298 298 298 299 299 299 300 299 299 298 298 297 297 296 296 295 293 292 291 289 287 286 283 281 278 275
271 274 277 280 282 284 285 286 289 291 293 294 295 297 298 298 299 299 300 301 301 301 302 302 301 301 301 301 300 300 299 298 297 296 294 293 292 290 288 287 284 282 280
275 278 280 283 284 285 287 289 292 293 295 296 297 299 299 300 301 302 302 303 303 303 303 303 303 303 303 302 301 301 300 299 298 297 296 295 294 293 292 290 287 286 285
279 281 283 285 286 288 290 292 294 296 297 298 300 301 302 303 303 304 305 305 305 305 305 305 305 305 304 303 303 302 301 299 298 297 297 297 297 296 293 291 290 289 289
281 283 285 286 288 290 291 293 296 297 299 301 302 303 304 305 305 306 306 306 306 306 306 306 306 306 305 305 304 303 301 298 297 297 297 298 298 297 295 294 293 292 291
282 284 286 288 289 291 293 295 298 300 302 303 304 305 306 306 307 307 307 307 307 307 307 307 307 307 307 306 304 302 300 298 297 297 298 299 300 299 299 299 300 300 298
282 284 287 288 291 293 296 298 300 302 304 305 305 306 307 308 308 309 309 309 308 308 308 308 309 308 308 306 304 302 300 297 297 297 298 301 302 302 301 303 304 303 301
282 285 287 290 293 296 299 301 303 304 305 306 306 307 308 309 309 309 310 309 309 309 309 309 309 309 308 306 304 302 299 297 296 296 299 302 302 302 303 305 306 305 303
283 286 290 293 296 299 301 303 304 305 306 307 308 309 309 310 310 310 310 311 311 310 310 310 310 310 309 306 304 302 300 299 299 298 300 302 302 303 306 309 312 313 311
286 289 293 297 299 301 302 304 305 306 307 309 309 310 310 311 311 311 312 312 312 311 310 309 310 309 308 305 304 303 301 301 303 301 302 304 303 305 309 314 319 323 323
290 293 297 299 300 302 303 305 306 308 309 310 310 310 311 312 312 312 313 313 313 311 309 309 309 308 307 305 304 304 303 303 304 303 303 305 305 307 310 317 323 328 330
294 296 298 300 301 303 305 307 308 309 310 310 311 312 313 313 314 314 315 315 313 311 309 308 308 308 307 306 306 306 305 304 304 303 302 303 302 303 305 311 318 323 327
Height
5803 5803 5802 5802 5801 5801 5800 5799 5798 5797 5795 5794 5792 5790 5788 5786 5784 5782 5779 5777 5774 5771 5769 5766 5765 5763 5762 5761 5760 5758 5757 5756 5755 5754 5754 5753 5752 5751 5751 5750 5750 5750 5750
5797 5797 5796 5795 5795 5794 5793 5793 5792 5790 5789 5787 5785 5783 5781 5779 5777 5774 5771 5769 5766 5763 5760 5758 5756 5755 5753 5752 5751 5749 5747 5746 5745 5744 5743 5742 5741 5741 5740 5739 5739 5739 5739
5791 5791 5790 5789 5788 5787 5786 5786 5785 5783 5781 5780 5778 5776 5774 5772 5769 5766 5763 5760 5757 5755 5752 5750 5748 5746 5745 5743 5742 5740 5738 5736 5734 5733 5732 5731 5730 5729 5727 5727 5726 5726 5726
5785 5784 5784 5783 5781 5781 5780 5779 5777 5776 5774 5772 5770 5768 5766 5764 5761 5758 5755 5752 5749 5747 5744 5742 5740 5738 5736 5734 5732 5729 5727 5725 5723 5721 5719 5718 5717 5715 5714 5713 5712 5712 5712
5778 5778 5777 5776 5775 5774 5773 5771 5770 5768 5766 5764 5762 5760 5758 5755 5752 5749 5746 5743 5741 5738 5735 5733 5731 5728 5726 5723 5720 5717 5715 5712 5709 5707 5705 5703 5702 5700 5699 5697 5696 5696 5696
5772 5771 5770 5769 5768 5767 5766 5764 5762 5760 5758 5756 5754 5752 5749 5746 5743 5740 5737 5734 5731 5728 5725 5723 5720 5717 5714 5711 5707 5704 5701 5697 5694 5692 5689 5687 5685 5683 5682 5680 5679 5678 5678
5765 5764 5763 5762 5761 5760 5759 5757 5755 5753 5751 5748 5745 5743 5740 5736 5733 5730 5727 5724 5721 5718 5714 5711 5707 5704 5701 5697 5693 5690 5686 5682 5679 5675 5672 5670 5668 5666 5664 5662 5660 5659 5658
5757 5756 5756 5755 5754 5753 5751 5750 5748 5746 5743 5740 5736 5733 5730 5727 5723 5720 5716 5713 5709 5706 5701 5697 5693 5689 5685 5681 5678 5674 5670 5665 5662 5658 5654 5651 5649 5647 5644 5642 5641 5639 5638
5750 5749 5749 5748 5746 5745 5743 5741 5739 5737 5735 5732 5728 5724 5720 5717 5714 5711 5705 5701 5696 5692 5687 5682 5677 5672 5667 5663 5659 5655 5651 5647 5642 5638 5635 5631 5628 5625 5623 5620 5618 5617 5615
5742 5742 5741 5740 5738 5737 5735 5732 5730 5727 5725 5722 5719 5714 5711 5707 5704 5702 5699 5692 5686 5681 5674 5668 5662 5656 5650 5645 5640 5636 5631 5626 5622 5617 5613 5609 5605 5602 5598 5595 5592 5590 5588
5734 5734 5732 5731 5730 5728 5725 5723 5720 5717 5714 5711 5707 5704 5700 5695 5691 5688 5686 5682 5676 5670 5663 5656 5649 5641 5634 5628 5623 5617 5612 5607 5602 5597 5592 5587 5582 5577 5572 5568 5563 5560 5557
5726 5725 5723 5722 5720 5718 5716 5713 5710 5707 5703 5700 5696 5692 5688 5684 5679 5674 5670 5666 5661 5655 5648 5641 5633 5624 5616 5609 5604 5598 5592 5587 5581 5575 5569 5562 5556 5549 5543 5537 5532 5527 5523
5717 5716 5714 5712 5711 5708 5706 5703 5699 5696 5692 5688 5684 5680 5676 5671 5665 5659 5654 5649 5644 5638 5631 5623 5615 5607 5598 5591 5584 5578 5571 5564 5557 5549 5541 5533 5524 5516 5508 5501 5493 5487 5481
5709 5707 5705 5703 5701 5698 5695 5692 5688 5684 5680 5677 5672 5668 5662 5657 5651 5644 5638 5632 5626 5621 5612 5603 5593 5584 5575 5568 5560 5552 5545 5537 5527 5517 5507 5496 5485 5474 5464 5455 5447 5440 5434
5700 5698 5696 5694 5691 5688 5685 5681 5677 5673 5669 5665 5660 5654 5649 5642 5635 5628 5621 5613 5606 5601 5595 5584 5572 5562 5551 5542 5533 5523 5513 5504 5492 5479 5466 5454 5442 5430 5420 5411 5404 5398 5393
5691 5689 5687 5684 5681 5678 5675 5671 5666 5662 5657 5653 5647 5641 5634 5627 5620 5612 5604 5596 5586 5578 5573 5565 5552 5540 5528 5517 5505 5492 5480 5467 5454 5439 5426 5414 5404 5396 5388 5381 5375 5370 5364
5682 5680 5678 5675 5672 5668 5664 5660 5656 5651 5646 5640 5633 5626 5619 5611 5603 5595 5586 5577 5567 5558 5551 5546 5532 5520 5506 5491 5477 5461 5445 5430 5417 5405 5394 5387 5380 5374 5367 5361 5356 5350 5345
5674 5671 5668 5665 5662 5658 5654 5649 5645 5639 5633 5626 5619 5611 5603 5595 5586 5577 5567 5558 5548 5538 5528 5522 5513 5497 5481 5462 5447 5431 5414 5399 5389 5382 5375 5369 5363 5357 5352 5347 5341 5336 5330
5665 5662 5659 5655 5652 5648 5643 5639 5633 5627 5620 5612 5604 5596 5587 5578 5569 5559 5549 5539 5529 5518 5506 5495 5486 5471 5454 5433 5417 5404 5390 5379 5371 5366 5360 5355 5349 5343 5338 5333 5327 5322 5317
5656 5653 5649 5646 5641 5637 5632 5627 5621 5614 5605 5597 5589 5580 5571 5561 5551 5542 5532 5521 5509 5497 5483 5468 5456 5441 5424 5406 5391 5382 5374 5365 5358 5353 5347 5342 5337 5331 5325 5319 5313 5307 5301
5646 5643 5640 5636 5631 5626 5621 5614 5607 5600 5591 5582 5573 5564 5555 5545 5535 5524 5512 5500 5486 5471 5456 5440 5426 5411 5397 5384 5374 5366 5361 5355 5348 5341 5337 5332 5325 5320 5313 5307 5300 5293 5286
5637 5634 5630 5625 5620 5615 5608 5601 5594 5585 5576 5567 5558 5549 5539 5529 5518 5506 5492 5477 5460 5443 5427 5412 5398 5386 5376 5367 5360 5354 5349 5345 5340 5332 5326 5322 5315 5309 5302 5296 5289 5281 5272
5629 5625 5620 5615 5609 5603 5596 5588 5580 5571 5562 5552 5543 5533 5523 5512 5499 5486 5472 5455 5436 5416 5399 5387 5377 5368 5361 5354 5350 5345 5339 5334 5328 5321 5317 5313 5305 5298 5292 5285 5278 5270 5261
5619 5615 5610 5604 5598 5591 5583 5576 5567 5558 5548 5538 5528 5517 5506 5493 5478 5464 5450 5433 5413 5395 5381 5370 5362 5356 5349 5343 5339 5334 5329 5325 5320 5312 5305 5302 5296 5289 5282 5276 5270 5262 5254
5610 5605 5599 5593 5586 5579 5571 5562 5554 5545 5535 5524 5513 5500 5487 5474 5459 5442 5426 5410 5394 5378 5366 5357 5351 5345 5339 5333 5327 5323 5318 5314 5310 5304 5297 5291 5286 5280 5274 5269 5263 5256 5249
5600 5594 5589 5582 5575 5567 5559 5550 5541 5532 5523 5512 5498 5483 5468 5452 5435 5417 5401 5388 5377 5366 5357 5349 5342 5336 5330 5324 5318 5312 5307 5302 5299 5295 5289 5283 5277 5272 5268 5262 5257 5251 5245